| time (UTC) | temp C | wind direction | speed KPH | gust KPH | rain 1hr cm | rain 24hr cm | rain mn cm | humidity % | barometer mb |
| 20260831181202 | 21 | 360 | 0.0 | 0.0 | 0.00 | 1.47 | 1.37 | 95 | 1016.6 |
| 20260831180203 | 21 | 360 | 0.0 | 0.0 | 0.00 | 1.47 | 1.37 | 95 | 1016.5 |
| 20260831175203 | 21 | 360 | 0.0 | 3.2 | 0.05 | 1.47 | 1.37 | 95 | 1016.6 |
| 20260831174202 | 21 | 359 | 1.6 | 4.8 | 0.03 | 1.45 | 1.35 | 95 | 1016.8 |
| 20260831173224 | 21 | 360 | 0.0 | 0.0 | 0.03 | 1.45 | 1.35 | 95 | 1016.6 |
| 20260831172205 | 21 | 360 | 0.0 | 4.8 | 0.03 | 1.45 | 1.35 | 95 | 1016.7 |
| 20260831171204 | 21 | 359 | 1.6 | 3.2 | 0.00 | 1.42 | 1.32 | 95 | 1016.7 |
| 20260831170202 | 21 | 359 | 0.0 | 3.2 | 0.00 | 1.42 | 1.32 | 96 | 1016.8 |
| 20260831165203 | 21 | 359 | 0.0 | 3.2 | 0.00 | 1.42 | 1.32 | 96 | 1017.0 |
| 20260831164223 | 21 | 359 | 0.0 | 3.2 | 0.00 | 1.42 | 1.32 | 96 | 1017.0 |
| 20260831163203 | 20 | 360 | 0.0 | 3.2 | 0.00 | 1.42 | 1.32 | 96 | 1017.0 |
| 20260831162202 | 20 | 360 | 0.0 | 4.8 | 0.00 | 1.42 | 1.32 | 96 | 1017.0 |
| 20260831161202 | 20 | 360 | 0.0 | 0.0 | 0.00 | 1.42 | 1.32 | 95 | 1017.1 |
| 20260831160202 | 20 | 360 | 0.0 | 0.0 | 0.00 | 1.42 | 1.32 | 95 | 1017.3 |
| 20260831155203 | 20 | 360 | 0.0 | 0.0 | 0.00 | 1.42 | 1.32 | 96 | 1017.4 |
| 20260831154224 | 19 | 360 | 0.0 | 0.0 | 0.00 | 1.42 | 1.32 | 95 | 1017.5 |
| 20260831153245 | 19 | 360 | 0.0 | 0.0 | 0.00 | 1.42 | 1.32 | 95 | 1017.5 |
| 20260831152202 | 19 | 360 | 0.0 | 0.0 | 0.00 | 1.45 | 1.32 | 95 | 1017.6 |
| 20260831151203 | 19 | 360 | 0.0 | 0.0 | 0.00 | 1.45 | 1.32 | 95 | 1017.5 |
| 20260831150203 | 19 | 360 | 0.0 | 0.0 | 0.00 | 1.45 | 1.32 | 95 | 1017.4 |
| 20260831145202 | 19 | 360 | 0.0 | 3.2 | 0.05 | 1.45 | 1.32 | 95 | 1017.3 |
| 20260831144202 | 19 | 359 | 0.0 | 3.2 | 0.05 | 1.45 | 1.32 | 95 | 1017.3 |
| 20260831143203 | 19 | 360 | 0.0 | 1.6 | 0.05 | 1.45 | 1.32 | 95 | 1017.3 |
| 20260831142202 | 18 | 360 | 0.0 | 3.2 | 0.03 | 1.42 | 1.30 | 95 | 1017.4 |
| 20260831141204 | 19 | 359 | 0.0 | 8.0 | 0.03 | 1.42 | 1.30 | 95 | 1017.4 |
| 20260831140202 | 18 | 360 | 0.0 | 0.0 | 0.00 | 1.40 | 1.27 | 95 | 1017.5 |
| 20260831135203 | 18 | 360 | 0.0 | 0.0 | 0.33 | 1.37 | 1.24 | 95 | 1017.4 |
| 20260831134202 | 18 | 360 | 0.0 | 0.0 | 0.20 | 1.24 | 1.12 | 95 | 1017.6 |
| 20260831133225 | 18 | 360 | 0.0 | 8.0 | 0.18 | 1.22 | 1.09 | 95 | 1017.6 |
| 20260831132202 | 18 | 359 | 1.6 | 6.4 | 0.13 | 1.17 | 1.04 | 95 | 1017.7 |
| 20260831131204 | 18 | 360 | 0.0 | 3.2 | 0.08 | 1.12 | 0.99 | 95 | 1017.6 |
| 20260831130202 | 18 | 359 | 0.0 | 1.6 | 0.00 | 1.04 | 0.91 | 95 | 1017.7 |
| 20260831125202 | 18 | 359 | 0.0 | 6.4 | 0.48 | 1.02 | 0.89 | 95 | 1017.5 |
| 20260831124202 | 18 | 1 | 1.6 | 3.2 | 0.46 | 0.99 | 0.86 | 95 | 1017.5 |
| 20260831123202 | 18 | 359 | 1.6 | 3.2 | 0.33 | 0.86 | 0.74 | 95 | 1017.5 |
| 20260831122202 | 18 | 359 | 0.0 | 1.6 | 0.23 | 0.76 | 0.64 | 95 | 1017.3 |
| 20260831121204 | 18 | 360 | 0.0 | 0.0 | 0.08 | 0.61 | 0.48 | 95 | 1017.5 |
| 20260831120202 | 18 | 360 | 0.0 | 1.6 | 0.00 | 0.53 | 0.41 | 95 | 1017.3 |
| 20260831115202 | 18 | 360 | 0.0 | 0.0 | 0.03 | 0.53 | 0.41 | 95 | 1017.3 |
| 20260831114223 | 18 | 360 | 0.0 | 0.0 | 0.03 | 0.53 | 0.41 | 95 | 1017.4 |
| 20260831113203 | 18 | 360 | 0.0 | 0.0 | 0.03 | 0.53 | 0.41 | 95 | 1017.4 |
| 20260831112203 | 18 | 360 | 0.0 | 0.0 | 0.00 | 0.51 | 0.38 | 95 | 1017.4 |
| 20260831111203 | 18 | 360 | 0.0 | 0.0 | 0.00 | 0.51 | 0.38 | 95 | 1017.5 |
| 20260831110202 | 18 | 360 | 0.0 | 0.0 | 0.00 | 0.51 | 0.38 | 95 | 1017.6 |
| 20260831105202 | 18 | 360 | 0.0 | 0.0 | 0.08 | 0.48 | 0.36 | 95 | 1017.6 |
| 20260831104224 | 18 | 360 | 0.0 | 0.0 | 0.05 | 0.46 | 0.33 | 95 | 1017.7 |
| 20260831103203 | 18 | 360 | 0.0 | 0.0 | 0.05 | 0.46 | 0.33 | 95 | 1017.7 |
| 20260831102205 | 18 | 360 | 0.0 | 0.0 | 0.03 | 0.43 | 0.30 | 95 | 1017.7 |
| 20260831101225 | 18 | 360 | 0.0 | 0.0 | 0.03 | 0.43 | 0.30 | 95 | 1017.8 |
| 20260831100202 | 18 | 360 | 0.0 | 1.6 | 0.00 | 0.41 | 0.28 | 95 | 1017.8 |
| 20260831095203 | 18 | 360 | 0.0 | 0.0 | 0.00 | 0.41 | 0.28 | 95 | 1017.7 |
| 20260831094202 | 18 | 360 | 0.0 | 0.0 | 0.00 | 0.41 | 0.28 | 95 | 1017.6 |
| 20260831093202 | 18 | 360 | 0.0 | 0.0 | 0.00 | 0.41 | 0.28 | 95 | 1017.5 |
| 20260831092223 | 18 | 360 | 0.0 | 0.0 | 0.00 | 0.41 | 0.28 | 95 | 1017.4 |
| 20260831091202 | 18 | 360 | 0.0 | 0.0 | 0.00 | 0.41 | 0.28 | 95 | 1017.5 |
| 20260831090202 | 19 | 360 | 0.0 | 0.0 | 0.00 | 0.41 | 0.28 | 95 | 1017.7 |
| 20260831085202 | 19 | 360 | 0.0 | 0.0 | 0.00 | 0.41 | 0.28 | 95 | 1017.8 |
| 20260831084203 | 19 | 360 | 0.0 | 0.0 | 0.00 | 0.41 | 0.28 | 95 | 1017.9 |
| 20260831083202 | 19 | 360 | 0.0 | 0.0 | 0.00 | 0.41 | 0.28 | 95 | 1017.8 |
| 20260831082203 | 19 | 360 | 0.0 | 0.0 | 0.00 | 0.41 | 0.28 | 95 | 1018.2 |
| 20260831081203 | 19 | 360 | 0.0 | 0.0 | 0.00 | 0.41 | 0.28 | 95 | 1018.2 |
| 20260831080204 | 19 | 360 | 0.0 | 0.0 | 0.00 | 0.41 | 0.28 | 95 | 1018.1 |
| 20260831075202 | 19 | 360 | 0.0 | 0.0 | 0.03 | 0.41 | 0.28 | 95 | 1018.2 |
| 20260831074202 | 19 | 360 | 0.0 | 0.0 | 0.03 | 0.41 | 0.28 | 95 | 1018.2 |
| 20260831073202 | 19 | 360 | 0.0 | 0.0 | 0.00 | 0.38 | 0.25 | 95 | 1018.3 |
| 20260831072202 | 19 | 360 | 0.0 | 0.0 | 0.00 | 0.38 | 0.25 | 95 | 1018.4 |
| 20260831071203 | 19 | 360 | 0.0 | 0.0 | 0.00 | 0.38 | 0.25 | 95 | 1018.4 |
| 20260831070204 | 19 | 360 | 0.0 | 0.0 | 0.00 | 0.38 | 0.25 | 95 | 1018.4 |
| 20260831065224 | 19 | 360 | 0.0 | 0.0 | 0.15 | 0.36 | 0.23 | 94 | 1018.5 |
| 20260831064203 | 19 | 360 | 0.0 | 0.0 | 0.10 | 0.30 | 0.18 | 94 | 1018.5 |
| 20260831063203 | 19 | 360 | 0.0 | 0.0 | 0.05 | 0.25 | 0.13 | 95 | 1018.6 |
| 20260831062203 | 19 | 360 | 0.0 | 0.0 | 0.05 | 0.25 | 0.13 | 95 | 1018.6 |
| 20260831061202 | 19 | 360 | 0.0 | 0.0 | 0.03 | 0.23 | 0.10 | 95 | 1018.8 |
| 20260831060202 | 19 | 360 | 0.0 | 0.0 | 0.00 | 0.20 | 0.08 | 94 | 1018.9 |
| 20260831055203 | 19 | 360 | 0.0 | 0.0 | 0.00 | 0.18 | 0.05 | 94 | 1018.9 |
| 20260831054202 | 19 | 360 | 0.0 | 0.0 | 0.00 | 0.18 | 0.05 | 94 | 1018.9 |
| 20260831053203 | 19 | 360 | 0.0 | 0.0 | 0.00 | 0.18 | 0.05 | 94 | 1018.7 |
| 20260831052203 | 19 | 360 | 0.0 | 0.0 | 0.00 | 0.18 | 0.05 | 94 | 1018.7 |
| 20260831051202 | 19 | 360 | 0.0 | 0.0 | 0.00 | 0.18 | 0.05 | 94 | 1018.8 |
| 20260831050204 | 19 | 360 | 0.0 | 0.0 | 0.00 | 0.18 | 0.05 | 94 | 1018.8 |
| 20260831045202 | 19 | 360 | 0.0 | 0.0 | 0.05 | 0.18 | 0.05 | 94 | 1018.7 |
| 20260831044203 | 19 | 360 | 0.0 | 0.0 | 0.05 | 0.18 | 0.05 | 94 | 1018.8 |
| 20260831043202 | 19 | 360 | 0.0 | 0.0 | 0.05 | 0.18 | 0.05 | 94 | 1018.9 |
| 20260831042203 | 19 | 360 | 0.0 | 0.0 | 0.03 | 0.15 | 0.03 | 94 | 1018.7 |
| 20260831041202 | 18 | 360 | 0.0 | 0.0 | 0.00 | 0.13 | 0.00 | 94 | 1018.8 |
| 20260831040203 | 18 | 360 | 0.0 | 0.0 | 0.00 | 0.13 | 0.00 | 94 | 1018.9 |
| 20260831035202 | 18 | 360 | 0.0 | 0.0 | 0.00 | 0.13 | 0.13 | 94 | 1018.9 |
| 20260831034203 | 18 | 360 | 0.0 | 0.0 | 0.00 | 0.13 | 0.13 | 94 | 1018.9 |
| 20260831033223 | 18 | 360 | 0.0 | 0.0 | 0.00 | 0.13 | 0.13 | 94 | 1018.9 |
| 20260831031203 | 18 | 360 | 0.0 | 0.0 | 0.00 | 0.13 | 0.13 | 94 | 1018.9 |
| 20260831030203 | 18 | 359 | 0.0 | 1.6 | 0.00 | 0.13 | 0.13 | 94 | 1019.0 |
| 20260831025202 | 18 | 360 | 0.0 | 0.0 | 0.00 | 0.13 | 0.13 | 94 | 1019.1 |
| 20260831024224 | 18 | 360 | 0.0 | 0.0 | 0.00 | 0.13 | 0.13 | 94 | 1019.3 |
| 20260831023202 | 18 | 360 | 0.0 | 0.0 | 0.00 | 0.13 | 0.13 | 94 | 1019.0 |
| 20260831022204 | 18 | 360 | 0.0 | 0.0 | 0.00 | 0.13 | 0.13 | 93 | 1019.0 |
| 20260831021224 | 18 | 360 | 0.0 | 0.0 | 0.00 | 0.13 | 0.13 | 93 | 1019.0 |
| 20260831020203 | 18 | 360 | 0.0 | 0.0 | 0.00 | 0.13 | 0.13 | 93 | 1019.1 |
| 20260831015203 | 18 | 360 | 0.0 | 1.6 | 0.00 | 0.13 | 0.13 | 93 | 1019.1 |
| 20260831014202 | 18 | 360 | 0.0 | 0.0 | 0.00 | 0.13 | 0.13 | 93 | 1019.2 |
| 20260831013202 | 18 | 360 | 0.0 | 0.0 | 0.00 | 0.13 | 0.13 | 93 | 1019.1 |
| 20260831012227 | 18 | 360 | 0.0 | 0.0 | 0.00 | 0.13 | 0.13 | 93 | 1019.2 |
| 20260831011202 | 18 | 360 | 0.0 | 0.0 | 0.00 | 0.13 | 0.13 | 93 | 1019.1 |
| 20260831010225 | 18 | 360 | 0.0 | 0.0 | 0.00 | 0.13 | 0.13 | 93 | 1019.1 |
| 20260831005202 | 18 | 360 | 0.0 | 0.0 | 0.00 | 0.13 | 0.13 | 93 | 1019.0 |
| 20260831004223 | 18 | 360 | 0.0 | 0.0 | 0.00 | 0.13 | 0.13 | 93 | 1018.8 |
| 20260831003203 | 18 | 360 | 0.0 | 0.0 | 0.00 | 0.13 | 0.13 | 93 | 1018.7 |
| 20260831002202 | 18 | 360 | 0.0 | 0.0 | 0.00 | 0.13 | 0.13 | 93 | 1018.6 |
| 20260831001224 | 18 | 360 | 0.0 | 0.0 | 0.00 | 0.13 | 0.13 | 92 | 1018.5 |
| 20260831000204 | 18 | 360 | 0.0 | 0.0 | 0.00 | 0.13 | 0.13 | 92 | 1018.5 |
| 20260830235223 | 18 | 360 | 0.0 | 0.0 | 0.03 | 0.13 | 0.13 | 92 | 1018.6 |
| 20260830234203 | 18 | 360 | 0.0 | 0.0 | 0.03 | 0.13 | 0.13 | 92 | 1018.5 |
| 20260830233202 | 18 | 360 | 0.0 | 0.0 | 0.03 | 0.13 | 0.13 | 92 | 1018.5 |
| 20260830232203 | 18 | 360 | 0.0 | 1.6 | 0.00 | 0.10 | 0.10 | 91 | 1018.4 |
| 20260830231205 | 18 | 360 | 0.0 | 0.0 | 0.00 | 0.10 | 0.10 | 91 | 1018.4 |
| 20260830225202 | 18 | 360 | 0.0 | 0.0 | 0.05 | 0.10 | 0.10 | 90 | 1018.5 |
| 20260830224204 | 18 | 360 | 0.0 | 0.0 | 0.03 | 0.08 | 0.08 | 90 | 1018.6 |
| 20260830223224 | 18 | 360 | 0.0 | 3.2 | 0.03 | 0.08 | 0.08 | 90 | 1018.6 |
| 20260830222203 | 18 | 360 | 0.0 | 3.2 | 0.03 | 0.08 | 0.08 | 90 | 1018.6 |
| 20260830221202 | 18 | 360 | 0.0 | 1.6 | 0.00 | 0.05 | 0.05 | 90 | 1018.6 |
| 20260830220202 | 18 | 360 | 0.0 | 1.6 | 0.00 | 0.05 | 0.05 | 90 | 1018.6 |
| 20260830215204 | 18 | 359 | 0.0 | 3.2 | 0.00 | 0.05 | 0.05 | 90 | 1018.6 |
| 20260830214202 | 18 | 360 | 0.0 | 3.2 | 0.00 | 0.05 | 0.05 | 90 | 1018.4 |
| 20260830213203 | 18 | 359 | 1.6 | 6.4 | 0.00 | 0.05 | 0.05 | 90 | 1018.4 |
| 20260830212203 | 18 | 360 | 0.0 | 0.0 | 0.00 | 0.05 | 0.05 | 90 | 1018.4 |
| 20260830211202 | 18 | 360 | 0.0 | 0.0 | 0.00 | 0.05 | 0.05 | 89 | 1018.4 |
| 20260830210203 | 18 | 360 | 0.0 | 0.0 | 0.00 | 0.05 | 0.05 | 89 | 1018.5 |
| 20260830205202 | 18 | 360 | 0.0 | 0.0 | 0.00 | 0.05 | 0.05 | 89 | 1018.5 |
| 20260830204204 | 18 | 360 | 0.0 | 3.2 | 0.00 | 0.05 | 0.05 | 89 | 1018.6 |
| 20260830203202 | 18 | 360 | 0.0 | 4.8 | 0.00 | 0.05 | 0.05 | 89 | 1018.7 |
| 20260830202202 | 18 | 359 | 0.0 | 3.2 | 0.00 | 0.05 | 0.05 | 89 | 1018.7 |
| 20260830201224 | 18 | 359 | 0.0 | 4.8 | 0.00 | 0.05 | 0.05 | 89 | 1018.7 |
| 20260830200203 | 18 | 357 | 1.6 | 6.4 | 0.00 | 0.05 | 0.05 | 90 | 1018.8 |
| 20260830195204 | 19 | 359 | 1.6 | 9.7 | 0.03 | 0.05 | 0.05 | 90 | 1018.9 |
| 20260830194202 | 19 | 359 | 3.2 | 8.0 | 0.03 | 0.05 | 0.05 | 90 | 1018.8 |
| 20260830193204 | 19 | 359 | 0.0 | 12.9 | 0.03 | 0.05 | 0.05 | 90 | 1019.0 |
| 20260830192202 | 19 | 359 | 3.2 | 14.5 | 0.03 | 0.05 | 0.05 | 90 | 1019.1 |
| 20260830191203 | 19 | 359 | 8.0 | 14.5 | 0.03 | 0.05 | 0.05 | 90 | 1018.9 |
| 20260830190203 | 19 | 359 | 6.4 | 17.7 | 0.00 | 0.03 | 0.03 | 90 | 1018.9 |
| 20260830185202 | 19 | 359 | 3.2 | 12.9 | 0.00 | 0.03 | 0.03 | 90 | 1018.9 |
| 20260830184203 | 19 | 359 | 3.2 | 17.7 | 0.00 | 0.03 | 0.03 | 89 | 1019.1 |
| 20260830183204 | 20 | 359 | 6.4 | 22.5 | 0.00 | 0.03 | 0.03 | 89 | 1019.2 |
| 20260830182204 | 20 | 359 | 4.8 | 20.9 | 0.00 | 0.03 | 0.03 | 89 | 1019.5 |